Weather Roundup
Issued by NWS Chicago, IL

Home | Current Version | Previous Version | Text Only | Print | Product List | Glossary Off
Versions: 1 2 3 4 5 6 7 8 9 10 11 12 13 14 15 16 17 18 19 20 21 22 23 24 25 26 27 28 29 30 31 32 33 34 35 36 37 38 39 40 41 42 43 44 45 46 47 48 49 50

000
NZUS59 KLOT 250808
HRRLOT

CHICAGO AREA WEATHER ROUNDUP
NATIONAL WEATHER SERVICE CHICAGO/ROMEOVILLE IL
300 AM CDT WED APR 25 2018

NOTE: "FAIR" INDICATES FEW OR NO CLOUDS BELOW 12,000 FEET WITH NO
SIGNIFICANT WEATHER AND/OR OBSTRUCTIONS TO VISIBILITY.

* THESE STATIONS ARE NOT UNDER NWS QUALITY CONTROL. THEY ALSO MAY NOT
  REPORT WEATHER SUCH AS PRECIPITATION OR FOG.

ILZ005-006-012>014-019>023-250900-
NORTHEAST ILLINOIS

CITY           SKY/WX    TMP DP  RH WIND       PRES   REMARKS
OHARE          CLOUDY    47  29  49 N25G33    30.04R
MIDWAY         CLOUDY    46  33  60 N17G29    30.04S
AURORA           N/A     46  33  60 NE20      30.04R
LANSING*       CLOUDY    44  38  78 N13       30.03R
JOLIET*          N/A     49  38  67 N10       30.02S
WAUKEGAN       CLOUDY    43  32  65 N16G29    30.05S
DUPAGE AIRPORT CLOUDY    47  32  56 N16       30.04R
WHEELING       CLOUDY    47  29  49 N18G31    30.07R
KANKAKEE*        N/A     47  45  92 N14       30.02R
MORRIS*          N/A     46  37  69 N10       30.02S
LEWIS AIRPORT* CLOUDY    47  34  61 NE21G26   30.03S
NORTHERLY ISL    N/A     43  33  68 NW21        N/A
$$

WIZ051-052-058>065-066-070>072-250900-
SOUTHEAST WISCONSIN

CITY           SKY/WX    TMP DP  RH WIND       PRES   REMARKS
MILWAUKEE        N/A     42  34  73 N18G32    30.08R
KENOSHA*       CLOUDY    44  31  60 NE18G26   30.07F
RACINE*        MOCLDY    41  33  73 N20G31    30.09S
BURLINGTON       N/A     44  30  59 N14G24    30.08F
WAUKESHA         N/A     41  32  70 N14G26    30.10F
WEST BEND        N/A     41  32  70 NE6       30.10S
$$

INZ001>003-010>013-019-020-250900-
NORTHWEST INDIANA

CITY           SKY/WX    TMP DP  RH WIND       PRES   REMARKS
GARY*          CLOUDY    44  37  75 N15G22    30.03F
MICHIGAN CITY* NOT AVBL
RENSSELAER*    NOT AVBL
VALPARAISO     CLOUDY    43  40  89 NW9       30.00S
$$

LMZ740>746-250900-
SOUTHERN LAKE MICHIGAN

STATION/POSITION TIME  SKY/WX   TEMP WIND        PRES    VSBY
                                AIR  DIR/SP/G
                 (UTC)          (F)  (DEG/KT/KT) (MB)    (MI)
HARRISON CRIB    0740            42  350/ 23/ 25   N/A
BURNHAM HARBOR   0800            42  340/ 18/ 24   N/A
CALUMET HARBOR   0748            42  330/ 14/ 20 1016.3F
BURNS HARBOR     0740            40  340/  6/  8 1016.9S
MICHIGAN CITY    0740            40  350/  6/  7   N/A
$$

ABBREVIATIONS USED IN REMARKS
   TC - TEMPERATURE IN CELSIUS
  WCI - WIND CHILL INDEX
   HX - HEAT INDEX
  VSB - VISIBILITY
$$



USA.gov is the U.S. government's official web portal to all federal, state and local government web resources and services.